{"data":{"norad_id":65030,"epoch":"2026-09-20T21:59:59.393760Z","epoch_age_seconds":88184,"freshness":"FRESH","line1":"1 65030U 25161R   26263.91665965  .00018363  00000+0  55292-3 0  9991","line2":"2 65030  53.1563 105.7155 0000910  92.5341 267.5766 15.34421155 65244","mean_motion":15.34421155,"eccentricity":9.1e-5,"inclination_deg":53.1563,"raan_deg":105.7155,"arg_perigee_deg":92.5341,"mean_anomaly_deg":267.5766,"bstar":0.00055292,"rev_number":6524,"period_min":93.846464206237,"perigee_km":462.01785307119,"apogee_km":463.2628745514,"semimajor_km":6840.7773638113,"source":"CELESTRAK","updated_at":"2026-09-21T09:00:35.494682Z"}}